This is the latest recevied weather packets stored in our database for station/object LA1HSA-13. If no packets are shown the sender has not sent any weather packets the latest 10 day(s).
| Time | Temp. | Humidity | Pressure | Rain* | Wind** | Luminosity | Snow |
|---|---|---|---|---|---|---|---|
| 1778088004 | 10.56° C | 31% | 1010.9 hPa | 0 mm | - | - | - |
| 1778087403 | 10.56° C | 32% | 1011 hPa | 0 mm | - | - | - |
| 1778086803 | 11.11° C | 34% | 1011.1 hPa | 0 mm | - | - | - |
| 1778086204 | 11.67° C | 32% | 1011 hPa | 0 mm | - | - | - |
| 1778085603 | 10.56° C | 31% | 1011.1 hPa | 0 mm | - | - | - |
| 1778085004 | 11.11° C | 31% | 1011 hPa | 0 mm | - | - | - |
| 1778084403 | 13.33° C | 28% | 1011.1 hPa | 0 mm | - | - | - |
| 1778083803 | 12.22° C | 29% | 1011.1 hPa | 0 mm | - | - | - |
| 1778083204 | 12.22° C | 29% | 1011 hPa | 0 mm | - | - | - |
| 1778082603 | 13.33° C | 29% | 1010.6 hPa | 0 mm | - | - | - |
| 1778082003 | 12.22° C | 28% | 1011 hPa | 0 mm | - | - | - |
| 1778081403 | 13.33° C | 28% | 1010.8 hPa | 0 mm | - | - | - |
| 1778080803 | 12.78° C | 27% | 1011.1 hPa | 0 mm | - | - | - |
| 1778080203 | 13.33° C | 29% | 1010.9 hPa | 0 mm | - | - | - |
| 1778079603 | 12.78° C | 29% | 1011.1 hPa | 0 mm | - | - | - |
| 1778079003 | 12.22° C | 28% | 1011.1 hPa | 0 mm | - | - | - |
| 1778078403 | 12.78° C | 29% | 1011.4 hPa | 0 mm | - | - | - |
| 1778077803 | 12.22° C | 28% | 1011.2 hPa | 0 mm | - | - | - |
| 1778077204 | 12.22° C | 28% | 1011.6 hPa | 0 mm | - | - | - |
| 1778076603 | 13.89° C | 28% | 1011.2 hPa | 0 mm | - | - | - |
| 1778076003 | 11.67° C | 29% | 1011.5 hPa | 0 mm | - | - | - |
| 1778075404 | 12.22° C | 27% | 1011.6 hPa | 0 mm | - | - | - |
| 1778074803 | 12.22° C | 30% | 1011.6 hPa | 0 mm | - | - | - |
| 1778074204 | 12.22° C | 29% | 1011.4 hPa | 0 mm | - | - | - |
| 1778073603 | 12.22° C | 30% | 1011.6 hPa | 0 mm | - | - | - |
* Rain latest hour (hover to see other rain measurements)
** Current wind speed in m/s (hover to see current wind gust speed)